Regional Weather Roundup
Issued by NWS

Home | Current Version | Previous Version | Graphics & Text | Print | Product List | Glossary On
Versions: 1 2 3 4 5 6 7 8 9 10 11 12 13 14 15 16 17 18 19 20 21 22 23 24 25 26 27 28 29 30 31 32 33 34 35 36 37 38 39 40 41 42 43 44 45 46 47 48 49 50
000
ASUS45 KCYS 050410
RWRWY

WYOMING REGIONAL WEATHER ROUNDUP
NATIONAL WEATHER SERVICE CHEYENNE WY
900 PM MST THU FEB 04 2016

NOTE:  "FAIR" INDICATES FEW OR NO CLOUDS BELOW 12,000 FEET
WITH NO SIGNIFICANT WEATHER AND/OR OBSTRUCTIONS TO VISIBILITY.

WYZ001-050500-
YELLOWSTONE NATIONAL PARK

CITY           SKY/WX    TMP DP  RH WIND       PRES   REMARKS
LK YELLOWSTONE   N/A      7   3  84 E6        30.23R WCI  -3
W YELLOWSTONE  NOT AVBL

$$
WYZ002>013-054>058-071-098>099-050500-
NORTHERN WYOMING

CITY           SKY/WX    TMP DP  RH WIND       PRES   REMARKS
JACKSON        CLOUDY    19  18  93 S15       30.29R WCI   5
CODY           CLOUDY    30   9  40 W13G22    30.13R WCI  20
GREYBULL       CLOUDY    22  13  68 CALM      30.19R
WORLAND        CLOUDY    16  11  80 SE7       30.18R WCI   6
SHERIDAN       CLOUDY    30  14  51 W12       30.08R WCI  21
BUFFALO        CLOUDY    34  12  40 NW15G26   30.06R WCI  24
GILLETTE       CLOUDY    28  16  60 SW16      30.06R WCI  16
HULETT         CLOUDY    32  19  59 SW13      30.05R WCI  22
NEWCASTLE      FAIR      27  18  69 SE5       30.10R WCI  21

$$
WYZ014>020-022>026-101>103-050500-
CENTRAL WYOMING

CITY           SKY/WX    TMP DP  RH WIND       PRES   REMARKS
BIG PINEY      FAIR      11   6  81 NE12      30.27R WCI  -3
PINEDALE       FAIR      12   9  85 W15       30.24F WCI  -4
DUBOIS         FAIR      18   9  68 NW14G25   30.15R WCI   4
LANDER         FAIR      23   9  55 S6        30.15R WCI  16
RIVERTON       FAIR      24   8  50 NW17G24   30.14S WCI  11
CASPER         FAIR      21  12  68 SW21      30.13S WCI   5
DOUGLAS        FAIR      26  14  60 MISG      30.11S

$$
WYZ021-027>030-104>119-050500-
SOUTHERN WYOMING

CITY           SKY/WX    TMP DP  RH WIND       PRES   REMARKS
EVANSTON       CLOUDY    20  15  81 SW16      30.31S WCI   6
FORT BRIDGER   FLURRIES  21  21 100 W17       30.33R WCI   7
ROCK SPRINGS   MOCLDY    19  14  81 W15       30.25S WCI   5
DIXON          LGT SNOW  19  16  88 SW10      30.30S VSB 3/4 WCI   8
RAWLINS        CLOUDY    18  13  80 W13G23    30.19R WCI   5
SARATOGA       CLOUDY    19  14  79 W23G30    30.17F HAZE    WCI   2
LARAMIE        CLOUDY    18   9  68 E3        30.12R
CHEYENNE       CLOUDY    26  12  55 W20G25    30.12S WCI  12
TORRINGTON     CLOUDY    29  20  69 W12       30.14S WCI  19
PINE BLUFFS    CLOUDY    28  19  69 W13       30.16R WCI  18

$$



USA.gov is the U.S. government's official web portal to all federal, state and local government web resources and services.